sat.trackr.live / text

‹ back to catalog

HAWK-6A

NORAD 55327 · 2023-011D

PAYLOAD ACTIVE UNKNOWN

§ Identity

Operator
Country
US
Launch date
2023-01-24
Launch site
WLPIS
Launch vehicle
Mass (kg)
RCS (m²)

Purposes: tech_demo

External: N2YO · Heavens-Above · Gunter

§ Orbital elements

Epoch: 2026-09-20T01:09:45.095040Z

Period
94.51 min
Inclination
40.4977°
Eccentricity
0.0003749
Mean motion
15.23644629 rev/d
Perigee alt
492.3 km
Apogee alt
497.4 km
Semi-major
6,873.0 km
B*
1.4490e-4
RAAN
156.9256°
Arg perigee
304.3234°
Mean anomaly
55.7221°
Rev number
20,232

§ Raw data

HAWK-6A1 55327U 23011D   26263.04843860  .00003351  00000+0  14490-3 0  99932 55327  40.4977 156.9256 0003749 304.3234  55.7221 15.23644629202324

JSON: /api/v1/satellites/55327 · /tle

For live sub-satellite position, see the globe view (requires WebGL).

§ Visibility from observer

Set your observer location to see the next 7 days of passes ≥ 10°. The values pass through the URL so the page stays shareable.

No JS? Fill the form by hand. The geolocation button needs JavaScript.